Buckland, AK

5:03 PM AKDT on July 22, 2017 (GMT -0800)
Buckland

Weather History for PABL - October, 2012

Change the Weather History Date:

Tuesday, October 30, 2012

  Actual Average (PASK) Record (PASK)
Temperature  
Mean Temperature 18 °F -  
Max Temperature 24 °F 16 °F 39 °F (2002)
Min Temperature 12 °F 9 °F -5 °F (2011)
Degree Days  
Heating Degree Days 47    
Moisture  
Dew Point 16 °F    
Average Humidity 79    
Maximum Humidity 100    
Minimum Humidity 63    
Precipitation  
Precipitation 0.00 in - - ()
Sea Level Pressure  
Sea Level Pressure 30.39 in    
Wind  
Wind Speed 11 mph (NNW)    
Max Wind Speed 21 mph    
Max Gust Speed 26 mph    
Visibility 10 miles    
Events      
Averages and records for this station are not official NWS values.
T = Trace of Precipitation, MM = Missing Value Source: NWS Daily Summary

Daily Weather History Graph

Daily Weather History Graph

Search for Another Location

Airport or City:

Trip Planner

Search our weather history database for the weather conditions in past years. The results will help you decide how hot, cold, wet, or windy it might be!

Date:

Astronomy

Oct. 30, 2012 Rise Set
Actual Time 10:35 AM AKDT 6:19 PM AKDT
Civil Twilight 9:37 AM AKDT 7:17 PM AKDT
Nautical Twilight 8:36 AM AKDT 8:18 PM AKDT
Astronomical Twilight 7:37 AM AKDT 9:17 PM AKDT
Moon 6:08 PM AKDT (10/30) 12:18 PM AKDT (10/30)
Length of Visible Light 9h 40m
Length of Day
7h 44m
Full, 99% of the Moon is Illuminated
Oct 30
Full
Nov 6
Last Quarter
Nov 13
New
Nov 20
First Quarter
Nov 28
Full

Hourly Weather History & Observations

Time (AKDT) Temp. Windchill Dew Point Humidity Pressure Visibility Wind Dir Wind Speed Gust Speed Precip Events Conditions
12:16 AM 17.6 °F 5.0 °F 12.2 °F 79% 30.33 in 10.0 mi NW 11.5 mph - N/A   Partly Cloudy
12:56 AM 19.4 °F 7.2 °F 14.0 °F 80% 30.33 in 10.0 mi NW 11.5 mph 18.4 mph N/A   Clear
1:16 AM 17.6 °F 5.7 °F 14.0 °F 86% 30.34 in 10.0 mi NNW 10.4 mph - N/A   Clear
1:36 AM 17.6 °F 8.2 °F 12.2 °F 79% 30.34 in 10.0 mi NNW 6.9 mph - N/A   Clear
1:56 AM 19.4 °F 10.4 °F 12.2 °F 74% 30.34 in 10.0 mi NNW 6.9 mph - N/A   Clear
2:16 AM 17.6 °F 8.2 °F 12.2 °F 79% 30.35 in 10.0 mi NW 6.9 mph - N/A   Scattered Clouds
2:36 AM 19.4 °F 12.8 °F 14.0 °F 80% 30.35 in 10.0 mi NNW 4.6 mph - N/A   Mostly Cloudy
2:56 AM 12.2 °F - 6.8 °F 79% 30.34 in 10.0 mi Calm Calm - N/A   Mostly Cloudy
3:16 AM 21.2 °F 10.9 °F 21.2 °F 100% 30.34 in 10.0 mi NNW 9.2 mph - N/A   Overcast
3:36 AM 23.0 °F 13.1 °F 21.2 °F 93% 30.34 in 10.0 mi NNW 9.2 mph - N/A   Overcast
3:56 AM 23.0 °F 13.9 °F 19.4 °F 86% 30.34 in 10.0 mi North 8.1 mph - N/A   Overcast
4:16 AM 24.8 °F 16.9 °F 21.2 °F 86% 30.34 in 10.0 mi NNW 6.9 mph - N/A   Overcast
4:36 AM 24.8 °F 13.4 °F 21.2 °F 86% 30.33 in 10.0 mi NW 12.7 mph - N/A   Overcast
4:56 AM 24.8 °F 13.4 °F 19.4 °F 80% 30.33 in 10.0 mi NW 12.7 mph - N/A   Overcast
5:16 AM 24.8 °F 12.4 °F 19.4 °F 80% 30.33 in 10.0 mi NNW 15.0 mph 20.7 mph N/A   Overcast
5:36 AM 24.8 °F 12.9 °F 19.4 °F 80% 30.34 in 10.0 mi NNW 13.8 mph 20.7 mph N/A   Overcast
5:56 AM 24.8 °F 12.4 °F 19.4 °F 80% 30.34 in 10.0 mi NNW 15.0 mph - N/A   Overcast
6:16 AM 24.8 °F 14.0 °F 19.4 °F 80% 30.34 in 10.0 mi NNW 11.5 mph - N/A   Overcast
6:36 AM 24.8 °F 14.6 °F 19.4 °F 80% 30.34 in 10.0 mi NNW 10.4 mph - N/A   Overcast
6:56 AM 23.0 °F 13.1 °F 19.4 °F 86% 30.34 in 10.0 mi NNW 9.2 mph - N/A   Overcast
7:16 AM 24.8 °F 14.6 °F 19.4 °F 80% 30.35 in 10.0 mi North 10.4 mph - N/A   Overcast
7:36 AM 23.0 °F 11.1 °F 19.4 °F 86% 30.34 in 10.0 mi NNW 12.7 mph - N/A   Overcast
8:16 AM 24.8 °F 12.9 °F 19.4 °F 80% 30.35 in 10.0 mi NNW 13.8 mph 18.4 mph N/A   Overcast
8:36 AM 24.8 °F 15.3 °F 19.4 °F 80% 30.35 in 10.0 mi North 9.2 mph - N/A   Overcast
8:56 AM 24.8 °F 15.3 °F 19.4 °F 80% 30.35 in 10.0 mi North 9.2 mph - N/A   Overcast
9:16 AM 24.8 °F 13.4 °F 19.4 °F 80% 30.35 in 10.0 mi NNW 12.7 mph - N/A   Overcast
9:36 AM 24.8 °F 12.4 °F 19.4 °F 80% 30.36 in 10.0 mi North 15.0 mph - N/A   Overcast
9:56 AM 24.8 °F 13.4 °F 17.6 °F 74% 30.36 in 10.0 mi North 12.7 mph 18.4 mph N/A   Overcast
10:16 AM 23.0 °F 12.4 °F 17.6 °F 80% 30.37 in 10.0 mi North 10.4 mph - N/A   Overcast
10:36 AM 23.0 °F 11.7 °F 17.6 °F 80% 30.37 in 10.0 mi North 11.5 mph - N/A   Overcast
10:56 AM 23.0 °F 11.7 °F 17.6 °F 80% 30.38 in 10.0 mi North 11.5 mph - N/A   Overcast
11:16 AM 23.0 °F 10.6 °F 17.6 °F 80% 30.38 in 10.0 mi North 13.8 mph - N/A   Overcast
11:36 AM 23.0 °F 11.1 °F 17.6 °F 80% 30.39 in 10.0 mi North 12.7 mph 19.6 mph N/A   Mostly Cloudy
11:56 AM 21.2 °F 8.9 °F 17.6 °F 86% 30.39 in 10.0 mi NNW 12.7 mph 21.9 mph N/A   Partly Cloudy
12:16 PM 21.2 °F 7.3 °F 15.8 °F 80% 30.40 in 10.0 mi North 16.1 mph 21.9 mph N/A   Clear
12:36 PM 23.0 °F 10.1 °F 17.6 °F 80% 30.40 in 10.0 mi North 15.0 mph - N/A   Mostly Cloudy
12:56 PM 23.0 °F 10.6 °F 17.6 °F 80% 30.40 in 10.0 mi North 13.8 mph 19.6 mph N/A   Overcast
1:16 PM 23.0 °F 9.6 °F 17.6 °F 80% 30.41 in 10.0 mi NNW 16.1 mph 19.6 mph N/A   Overcast
1:36 PM 23.0 °F 10.6 °F 17.6 °F 80% 30.41 in 10.0 mi NNW 13.8 mph 20.7 mph N/A   Overcast
1:56 PM 24.8 °F 11.9 °F 17.6 °F 74% 30.41 in 10.0 mi NNW 16.1 mph - N/A   Overcast
2:16 PM 23.0 °F 10.1 °F 15.8 °F 74% 30.41 in 10.0 mi NNW 15.0 mph 20.7 mph N/A   Overcast
2:36 PM 23.0 °F 11.1 °F 15.8 °F 74% 30.41 in 10.0 mi NNW 12.7 mph - N/A   Overcast
2:56 PM 24.8 °F 13.4 °F 15.8 °F 69% 30.41 in 10.0 mi North 12.7 mph 19.6 mph N/A   Overcast
3:16 PM 24.8 °F 11.1 °F 15.8 °F 69% 30.41 in 10.0 mi NNW 18.4 mph 23.0 mph N/A   Overcast
3:36 PM 23.0 °F 9.6 °F 15.8 °F 74% 30.41 in 10.0 mi NNW 16.1 mph 24.2 mph N/A   Mostly Cloudy
3:56 PM 23.0 °F 9.6 °F 15.8 °F 74% 30.41 in 10.0 mi NNW 16.1 mph 21.9 mph N/A   Scattered Clouds
4:16 PM 24.8 °F 12.4 °F 15.8 °F 69% 30.42 in 10.0 mi NNW 15.0 mph - N/A   Mostly Cloudy
4:36 PM 24.8 °F 11.9 °F 15.8 °F 69% 30.42 in 10.0 mi NNW 16.1 mph 21.9 mph N/A   Overcast
4:56 PM 23.0 °F 10.1 °F 15.8 °F 74% 30.42 in 10.0 mi NW 15.0 mph 19.6 mph N/A   Overcast
5:16 PM 21.2 °F 7.3 °F 15.8 °F 80% 30.42 in 10.0 mi NNW 16.1 mph 21.9 mph N/A   Scattered Clouds
5:36 PM 21.2 °F 7.3 °F 15.8 °F 80% 30.41 in 10.0 mi NNW 16.1 mph 21.9 mph N/A   Mostly Cloudy
5:56 PM 21.2 °F 7.8 °F 15.8 °F 80% 30.41 in 10.0 mi NW 15.0 mph - N/A   Scattered Clouds
6:16 PM 21.2 °F 8.3 °F 15.8 °F 80% 30.41 in 10.0 mi NW 13.8 mph 20.7 mph N/A   Scattered Clouds
6:36 PM 21.2 °F 6.8 °F 15.8 °F 80% 30.41 in 10.0 mi NNW 17.3 mph 23.0 mph N/A   Partly Cloudy
6:56 PM 21.2 °F 5.6 °F 14.0 °F 74% 30.40 in 10.0 mi NNW 20.7 mph 26.5 mph N/A   Clear
7:16 PM 21.2 °F 6.0 °F 15.8 °F 80% 30.40 in 10.0 mi NW 19.6 mph - N/A   Clear
7:36 PM 19.4 °F 6.0 °F 15.8 °F 86% 30.42 in 10.0 mi NNW 13.8 mph - N/A   Clear
7:56 PM 19.4 °F 9.5 °F 14.0 °F 80% 30.43 in 10.0 mi NNW 8.1 mph - N/A   Clear
8:16 PM 21.2 °F 10.9 °F 14.0 °F 74% 30.44 in 10.0 mi North 9.2 mph - N/A   Clear
8:36 PM 19.4 °F 9.5 °F 12.2 °F 74% 30.43 in 10.0 mi NNW 8.1 mph - N/A   Clear
8:56 PM 19.4 °F 7.9 °F 14.0 °F 80% 30.44 in 10.0 mi NNW 10.4 mph 17.3 mph N/A   Clear
9:16 PM 19.4 °F 7.9 °F 14.0 °F 80% 30.44 in 10.0 mi NNW 10.4 mph - N/A   Clear
9:36 PM 19.4 °F 7.9 °F 12.2 °F 74% 30.44 in 10.0 mi NNW 10.4 mph - N/A   Clear
9:56 PM 17.6 °F 7.3 °F 10.4 °F 73% 30.44 in 10.0 mi NW 8.1 mph - N/A   Clear
10:16 PM 19.4 °F 5.0 °F 12.2 °F 74% 30.44 in 10.0 mi North 16.1 mph 19.6 mph N/A   Clear
10:36 PM 21.2 °F 6.0 °F 10.4 °F 63% 30.44 in 10.0 mi North 19.6 mph 24.2 mph N/A   Clear
10:56 PM 19.4 °F 6.0 °F 12.2 °F 74% 30.44 in 10.0 mi NNW 13.8 mph - N/A   Clear
11:16 PM 19.4 °F 6.6 °F 12.2 °F 74% 30.45 in 10.0 mi NNW 12.7 mph 18.4 mph N/A   Clear
11:56 PM 19.4 °F 7.9 °F 12.2 °F 74% 30.46 in 10.0 mi NNW 10.4 mph 18.4 mph N/A   Clear